Regional Weather Roundup
Issued by NWS

Home | Current Version | Previous Version | Text Only | Print | Product List | Glossary Off
Versions: 1 2 3 4 5 6 7 8 9 10 11 12 13 14 15 16 17 18 19 20 21 22 23 24 25 26 27

000
ASUS45 KBOU 271007
RWRCO

WEATHER ROUNDUP FOR COLORADO
NATIONAL WEATHER SERVICE DENVER/BOULDER CO
400 AM MDT WED JUL 27 2016

NOTE: "FAIR" INDICATES FEW OR NO CLOUDS BELOW 12000 FEET WITH NO
SIGNIFICANT WEATHER AND/OR OBSTRUCTIONS TO VISIBILITY.

COZ001>005-013-030-031-271100-
...NORTHWEST COLORADO...

CITY           SKY/WX    TMP DP  RH WIND       PRES   REMARKS
CRAIG          FAIR      46  40  79 CALM      30.25S
HAYDEN         FAIR      55  37  50 SE12      30.27S
MEEKER         FAIR      50  42  74 NE7       30.27S
MOUNT WERNER   NOT AVBL
STEAMBOAT SPGS FAIR      47  38  69 CALM      30.31R
WALDEN         FAIR      37  32  81 SE8       30.41R
$$

COZ006>008-011-271100-
...WEST CENTRAL VALLEYS...

CITY           SKY/WX    TMP DP  RH WIND       PRES   REMARKS
GRAND JUNCTION FAIR      70  41  34 E5        30.13R
MONTROSE       FAIR      61  42  49 SE9       30.24S
EAGLE          FAIR      52  39  62 CALM      30.35S
RIFLE          FAIR      58  41  53 CALM      30.23R
DELTA          FAIR      65  41  42 E6        30.19S
NUCLA          FAIR      63  41  45 SE7       30.27R
$$

COZ017>023-064>068-271100-
...SOUTHWEST COLORADO...

CITY           SKY/WX    TMP DP  RH WIND       PRES   REMARKS
DURANGO        FAIR      55  47  74 CALM      30.30R
CORTEZ         FAIR      57  46  66 E6        30.24R
PAGOSA SPRINGS FAIR      50  43  78 CALM      30.37F
TELLURIDE      FAIR      54  40  59 SE6       30.50S
WOLF CREEK PAS FAIR      50  34  53 CALM      30.70F
$$

COZ009-010-012-014-032>034-037-058>063-271100-
...CENTRAL COLORADO...

CITY           SKY/WX    TMP DP  RH WIND       PRES   REMARKS
ASPEN          FAIR      48  39  71 CALM      30.38R
BUENA VISTA    FAIR      52  35  52 W12       30.40R
COPPER MTN     FAIR      54  27  35 W5        30.69S
BERTHOUD PASS  FAIR      45  32  61 NW12      30.71S
COTTONWOOD PAS FAIR      61  28  29 W9        30.52R
GUNNISON       FAIR      46  37  71 CALM      30.43S
KREMMLING      FAIR      41  36  81 CALM      30.41R
LEADVILLE      FAIR      37  30  75 NE3       30.53S
MONARCH PASS   FAIR      48  32  53 W15       30.77F
SALIDA         FAIR      53  40  62 W7        30.44F
SUNLIGHT       FAIR      55  34  44 MISG      30.62S
WILKERSON PASS FAIR      52  30  43 W5        30.65R
$$

COZ069>075-271100-
...SAN LUIS VALLEY/SANGRE DE CRISTO MOUNTAINS...

CITY           SKY/WX    TMP DP  RH WIND       PRES   REMARKS
ALAMOSA        FAIR      49  45  86 N6        30.35R
LA VETA PASS   FAIR      54  43  66 S3        30.54S
SAGUACHE       FAIR      52  41  66 NW10      30.39S
$$

COZ035-036-038>040-271100-
...NORTHERN COLORADO FRONT RANGE...

CITY           SKY/WX    TMP DP  RH WIND       PRES   REMARKS
DENVER INTL AP FAIR      67  57  70 SW10      30.16R
DMNS CITY PARK   N/A     62  47  56 S2        30.15S
AURORA         PTCLDY    67  59  76 S15       30.18S
FRONT RANGE AP NOT AVBL
ERIE MUNI ARPT FAIR      56  46  70 CALM      30.15R
BOULDER MUN AP FAIR      63  43  48 S3        30.16R
CENTENNIAL     FAIR      63  56  78 S7        30.20R
BROOMFIELD     FAIR      61  45  55 NW9       30.17F
LONGMONT       FAIR      56  45  67 N3        30.17R
$$

COZ041-046-047-076>085-087-088-271100-
...PIKES PEAK/PALMER DIVIDE AND SOUTHERN FOOTHILLS...

CITY           SKY/WX    TMP DP  RH WIND       PRES   REMARKS
COLO. SPRINGS  FAIR      63  57  81 SE7       30.27F
A. F. ACADEMY  MOCLDY    62  58  85 SE6       30.28S
SCHRIEVER AFB  NOT AVBL
ELLICOTT       FAIR     N/A N/A N/A SW3       30.25R
FALCON         MOCLDY    59  57  92 S3        30.31
FORT CARSON    FAIR      64  58  82 VRB1      30.23F
LIMON          NOT AVBL
MONUMENT HILL  FAIR      55  55 100 S10       30.31S
TRINIDAD       NOT AVBL
$$

COZ042>045-048>051-090-091-271100-
...NORTHEAST COLORADO...

CITY           SKY/WX    TMP DP  RH WIND       PRES   REMARKS
GREELEY ARPT   FAIR      57  52  82 N7        30.14R
AKRON          FAIR      66  55  67 S10       30.12S
BURLINGTON     FAIR      72  52  49 VRB5G24   30.15R
WRAY           FAIR      64  59  82 SE10      30.13R
STERLING       FAIR      64  55  72 CALM      30.10R
HOLYOKE        FAIR      64  59  82 W9        30.14R
FORT MORGAN    FAIR      59  55  87 N6        30.12R
$$

COZ086-089-092>099-271100-
...SOUTHEAST COLORADO...

CITY           SKY/WX    TMP DP  RH WIND       PRES   REMARKS
PUEBLO         FAIR      66  60  81 N7        30.16R
LA JUNTA       FAIR      71  54  54 SE15      30.10F
LAMAR          FAIR      74  53  48 SE20G28   30.03F
SPRINGFIELD      N/A     67  59  75 NE10      30.13F
$$




USA.gov is the U.S. government's official web portal to all federal, state and local government web resources and services.